Regional Weather Roundup
Issued by NWS

Home | Current Version | Previous Version | Graphics & Text | Print | Product List | Glossary On
Versions: 1 2 3 4 5 6 7 8 9 10 11 12 13 14 15 16 17 18 19 20 21 22 23 24 25 26 27
000
ASUS43 KDMX 221507
RWRIA

WEATHER ROUNDUP FOR IOWA
NATIONAL WEATHER SERVICE DES MOINES IA
1000 AM CDT TUE APR 22 2014

NOTE: "FAIR" INDICATES FEW OR NO CLOUDS BELOW 12,000 FEET WITH NO
SIGNIFICANT WEATHER AND/OR OBSTRUCTIONS TO VISIBILITY.

* - THESE STATIONS ARE NOT NWS STATIONS...THUS NOT UNDER NWS
QUALITY CONTROL.  THEY ALSO DO NOT REPORT WEATHER SUCH
AS PRECIPITATION OR FOG.

IAZ001>003-012>014-020>022-031>034-043>046-221600-
   NORTHWEST IOWA

CITY           SKY/WX    TMP DP  RH WIND       PRES   REMARKS
CARROLL *      SUNNY     52  32  46 NE15      30.15F
CHEROKEE *     SUNNY     54  36  50 CALM      30.17S
DENISON *      SUNNY     52  34  50 E9        30.16R
LE MARS *      SUNNY     55  32  41 E8        30.16F
ORANGE CITY *  SUNNY     54  30  40 SE5       30.16F
SHELDON *      SUNNY     52  32  46 VRB3      30.16R
SIOUX CITY     SUNNY     54  31  41 E10       30.15F
SPENCER        SUNNY     52  33  48 NE6       30.16S
STORM LAKE *   SUNNY     50  32  50 NE9       30.16S
$$

IAZ055>058-069>071-079>083-090>094-221600-
   SOUTHWEST IOWA

CITY           SKY/WX    TMP DP  RH WIND       PRES   REMARKS
ATLANTIC *     SUNNY     54  34  47 NE10      30.16R
AUDUBON *      SUNNY     55  28  35 NE12      30.17S
CLARINDA *     SUNNY     55  32  41 NE10      30.18R
COUNCIL BLFS * SUNNY     54  34  47 E9        30.16S
CRESTON *      SUNNY     54  30  40 NE20      30.15S
HARLAN  *      SUNNY     54  34  47 NE10      30.20S
LAMONI         SUNNY     53  32  44 NE14      30.14S
RED OAK *      SUNNY     54  34  47 NE13      30.17S
SHENANDOAH *   SUNNY     55  32  41 NE14      30.17F
$$

IAZ047>049-059>061-072>074-084-221600-
   CENTRAL IOWA

CITY           SKY/WX    TMP DP  RH WIND       PRES   REMARKS
AMES           SUNNY     53  32  44 N16G23    30.14S
ANKENY *       SUNNY     54  32  43 N13       30.15R
CHARITON *     SUNNY     50  34  53 N10       30.15R
DES MOINES     MOSUNNY   55  31  39 N12       30.15R
GRINNELL*      SUNNY     52  32  46 N16G23    30.13R
KNOXVILLE *    SUNNY     50  30  46 N10       30.13S
MARSHALLTOWN   SUNNY     51  32  48 N15G23    30.13R
NEWTON *       SUNNY     52  32  46 N14       30.14R
PELLA *        SUNNY     52  34  50 N10G16    30.15R
PERRY *          N/A     54  28  37 N13       30.15F
$$

IAZ004>006-015-016-023>025-035-036-221600-
   NORTH CENTRAL IOWA

CITY           SKY/WX    TMP DP  RH WIND       PRES   REMARKS
ALGONA *       SUNNY     52  36  54 N14G20    30.14F
CLARION *      SUNNY     48  37  66 N14       30.14F
ESTHERVILLE    SUNNY     52  35  52 N14       30.14F
FORT DODGE *   SUNNY     52  36  54 NE10      30.16S
MASON CITY     SUNNY     50  35  56 N16       30.14S
FOREST CITY *  SUNNY     50  34  53 N10       30.13S
IOWA FALLS *     N/A     50  34  53 N16       30.14F
$$

IAZ007>011-017>019-026>030-037>042-050>054-066-221600-
   NORTHEAST IOWA

CITY           SKY/WX    TMP DP  RH WIND       PRES   REMARKS
CEDAR RAPIDS   SUNNY     49  33  54 N20       30.09S
CHARLES CITY * SUNNY     46  34  61 N13       30.13S
CLINTON *      SUNNY     50  30  46 N18G24    30.08S
DECORAH *      SUNNY     45  30  57 NW16      30.08S
DUBUQUE        SUNNY     47  29  49 N15       30.05S
MONTICELLO *   SUNNY     50  30  46 N18       30.07S
OELWEIN *      SUNNY    N/A N/A N/A N15       30.11S
WATERLOO       SUNNY     50  33  52 N13       30.11S
$$

IAZ064-065-067-068-078-221600-
   EAST CENTRAL IOWA

CITY           SKY/WX    TMP DP  RH WIND       PRES   REMARKS
DAVENPORT      SUNNY     50  35  56 N17       30.06S
IOWA CITY      SUNNY     50  32  50 NW15G23   30.11S
MT. PLEASANT * SUNNY     54  32  43 N16       30.10S
MUSCATINE *    SUNNY     52  32  46 N15G22    30.09S
QUAD CITIES    SUNNY     51  33  50 N12       30.06R
$$

IAZ062-063-075>077-085>089-095>099-221600-
   SOUTHEAST IOWA

CITY           SKY/WX    TMP DP  RH WIND       PRES   REMARKS
BURLINGTON     SUNNY     53  33  46 N14       30.08R
FAIRFIELD *    SUNNY     50  34  53 N16G23    30.11S
FORT MADISON * SUNNY     52  34  50 N14       30.09S
KEOKUK *       SUNNY     52  36  54 N14       30.08S
OSKALOOSA *      N/A     52  34  50 N15       30.12S
CENTERVILLE *  SUNNY     50  32  50 N14       30.14R
OTTUMWA        SUNNY     51  32  48 N15       30.11F
WASHINGTON *   SUNNY     52  32  46 N18G26    30.10F
$$

ABBREVIATIONS USED IN REMARKS
   TC - TEMPERATURES IN CELSIUS
  WCI - WIND CHILL INDEX
   HX - HEAT INDEX
  VSB - VISIBILITY
$$




USA.gov is the U.S. government's official web portal to all federal, state and local government web resources and services.